sat.trackr.live / text

‹ back to catalog

GONETS-M 9

NORAD 40062 · 2014-036B

PAYLOAD ACTIVE UNKNOWN

§ Identity

Operator
Country
CIS
Launch date
2014-07-03
Launch site
PLMSC
Launch vehicle
Mass (kg)
RCS (m²)
1.65

External: N2YO · Heavens-Above · Gunter

§ Orbital elements

Epoch: 2026-05-25T03:32:35.016864Z

Period
115.85 min
Inclination
82.5101°
Eccentricity
0.0022783
Mean motion
12.42950121 rev/d
Perigee alt
1,476.2 km
Apogee alt
1,512.1 km
Semi-major
7,872.3 km
B*
8.8702e-5
RAAN
321.9755°
Arg perigee
203.7874°
Mean anomaly
156.2155°
Rev number
53,959

§ Raw data

GONETS-M 91 40062U 14036B   26145.14762751  .00000022  00000+0  88702-4 0  99992 40062  82.5101 321.9755 0022783 203.7874 156.2155 12.42950121539599

JSON: /api/v1/satellites/40062 · /tle

For live sub-satellite position, see the globe view (requires WebGL).

§ Visibility from observer

Set your observer location to see the next 7 days of passes ≥ 10°. The values pass through the URL so the page stays shareable.

No JS? Fill the form by hand. The geolocation button needs JavaScript.